Rochester/St. Mary\'s Hospita, MN

3:50 AM CDT on June 21, 2018 (GMT -0500)
Rochester/St. Mary\'s Hospita

Weather History for K9MN - October, 2017

Change the Weather History Date:

Tuesday, October 3, 2017

  Actual Average (KRST) Record (KRST)
Temperature  
Mean Temperature 64 °F -  
Max Temperature 73 °F 63 °F 93 °F (1997)
Min Temperature 54 °F 42 °F 24 °F (1888)
Degree Days  
Heating Degree Days 2    
Growing Degree Days 14 (Base 50)    
Moisture  
Dew Point 59 °F    
Average Humidity 79    
Maximum Humidity 100    
Minimum Humidity 63    
Precipitation  
Precipitation 0.18 in - - ()
Sea Level Pressure  
Sea Level Pressure 30.07 in    
Wind  
Wind Speed 13 mph (SSW)    
Max Wind Speed 24 mph    
Max Gust Speed 34 mph    
Visibility 10 miles    
Events      
Averages and records for this station are not official NWS values.
T = Trace of Precipitation, MM = Missing Value Source: NWS Daily Summary

Daily Weather History Graph

Daily Weather History Graph

Search for Another Location

Airport or City:

Astronomy

Oct. 03, 2017 Rise Set
Actual Time 7:10 AM CDT 6:46 PM CDT
Civil Twilight 6:41 AM CDT 7:15 PM CDT
Nautical Twilight 6:08 AM CDT 7:48 PM CDT
Astronomical Twilight 5:34 AM CDT 8:22 PM CDT
Moon 6:04 PM CDT (10/3) 4:34 AM CDT (10/3)
Length of Visible Light 12h 33m
Length of Day
11h 36m
Waxing Gibbous, 95% of the Moon is Illuminated
Oct 3
Waxing Gibbous
Oct 5
Full
Oct 12
Last Quarter
Oct 19
New
Oct 27
First Quarter

Hourly Weather History & Observations

Time (CDT) Temp. Dew Point Humidity Pressure Visibility Wind Dir Wind Speed Gust Speed Precip Events Conditions
12:12 AM 72.7 °F 59.9 °F 64% 29.93 in 10.0 mi SSE 9.2 mph 20.7 mph N/A   Clear
12:32 AM 72.9 °F 59.7 °F 63% 29.93 in 10.0 mi SSE 13.8 mph 21.9 mph N/A   Clear
12:52 AM 72.0 °F 59.7 °F 65% 29.93 in 10.0 mi SSE 12.7 mph 21.9 mph N/A   Clear
1:12 AM 71.6 °F 59.5 °F 66% 29.93 in 10.0 mi SSE 13.8 mph 24.2 mph N/A   Clear
1:32 AM 71.6 °F 59.4 °F 65% 29.94 in 10.0 mi SSE 15.0 mph 24.2 mph N/A   Clear
1:52 AM 71.2 °F 59.2 °F 66% 29.94 in 10.0 mi SSE 15.0 mph 24.2 mph N/A   Clear
2:12 AM 70.9 °F 59.2 °F 66% 29.94 in 10.0 mi SSE 15.0 mph 25.3 mph N/A   Clear
2:32 AM 70.3 °F 59.0 °F 67% 29.94 in 10.0 mi SE 12.7 mph 24.2 mph N/A   Clear
2:52 AM 70.2 °F 58.5 °F 66% 29.93 in 10.0 mi SSE 12.7 mph 20.7 mph N/A   Clear
3:12 AM 70.2 °F 58.1 °F 65% 29.93 in 10.0 mi SSE 15.0 mph 24.2 mph N/A   Clear
3:32 AM 70.2 °F 57.7 °F 65% 29.94 in 10.0 mi SSE 16.1 mph 26.5 mph N/A   Clear
3:52 AM 70.0 °F 57.7 °F 65% 29.95 in 10.0 mi SSE 13.8 mph 25.3 mph N/A   Clear
4:12 AM 70.0 °F 57.7 °F 65% 29.95 in 10.0 mi SSE 16.1 mph 24.2 mph N/A   Scattered Clouds
4:32 AM 70.0 °F 57.7 °F 65% 29.96 in 10.0 mi SSE 18.4 mph 25.3 mph N/A   Scattered Clouds
4:52 AM 69.8 °F 58.1 °F 66% 29.95 in 10.0 mi SSE 17.3 mph 27.6 mph N/A   Clear
5:12 AM 69.8 °F 58.3 °F 67% 29.95 in 10.0 mi SE 15.0 mph 31.1 mph N/A   Mostly Cloudy
5:32 AM 70.2 °F 58.6 °F 67% 29.95 in 10.0 mi SSE 17.3 mph 32.2 mph N/A   Scattered Clouds
5:51 AM 70.0 °F 58.6 °F 67% 29.95 in 10.0 mi SSE 15.0 mph 26.5 mph N/A   Clear
6:12 AM 70.0 °F 59.0 °F 68% 29.96 in 10.0 mi SSE 16.1 mph 23.0 mph N/A   Scattered Clouds
6:32 AM 70.2 °F 59.2 °F 68% 29.96 in 10.0 mi SSE 15.0 mph 21.9 mph N/A   Mostly Cloudy
6:51 AM 70.0 °F 59.4 °F 69% 29.98 in 10.0 mi South 13.8 mph 27.6 mph N/A   Mostly Cloudy
7:12 AM 70.3 °F 59.9 °F 69% 29.98 in 10.0 mi SSE 16.1 mph 29.9 mph N/A   Overcast
7:32 AM 70.3 °F 59.9 °F 69% 29.98 in 10.0 mi SSE 17.3 mph 26.5 mph N/A   Overcast
7:51 AM 70.2 °F 60.1 °F 70% 29.98 in 10.0 mi SSE 13.8 mph 21.9 mph N/A   Mostly Cloudy
8:12 AM 70.2 °F 60.8 °F 72% 29.99 in 10.0 mi South 18.4 mph 25.3 mph N/A   Scattered Clouds
8:32 AM 70.3 °F 60.8 °F 72% 29.98 in 10.0 mi South 16.1 mph 27.6 mph N/A   Scattered Clouds
8:52 AM 70.3 °F 61.2 °F 73% 29.97 in 10.0 mi SSE 15.0 mph 26.5 mph N/A   Scattered Clouds
9:12 AM 70.7 °F 61.3 °F 72% 30.01 in 10.0 mi South 18.4 mph 27.6 mph N/A   Scattered Clouds
9:31 AM 70.7 °F 61.7 °F 73% 30.02 in 10.0 mi SSE 18.4 mph 34.5 mph N/A   Overcast
9:52 AM 70.9 °F 61.9 °F 73% 30.02 in 10.0 mi South 19.6 mph 32.2 mph N/A   Overcast
10:12 AM 71.2 °F 62.1 °F 73% 30.02 in 10.0 mi South 13.8 mph 29.9 mph N/A   Mostly Cloudy
10:31 AM 72.1 °F 62.2 °F 71% 30.03 in 10.0 mi South 16.1 mph 29.9 mph N/A   Mostly Cloudy
10:52 AM 72.0 °F 62.6 °F 72% 30.04 in 10.0 mi South 13.8 mph 26.5 mph N/A   Overcast
11:12 AM 72.5 °F 62.8 °F 71% 30.03 in 10.0 mi South 16.1 mph 27.6 mph N/A   Overcast
11:31 AM 73.0 °F 63.0 °F 71% 30.04 in 10.0 mi South 18.4 mph 28.8 mph N/A   Overcast
11:52 AM 72.7 °F 63.5 °F 73% 30.05 in 10.0 mi South 16.1 mph 26.5 mph N/A   Overcast
12:12 PM 69.3 °F 65.5 °F 88% 30.06 in 7.0 mi South 13.8 mph 26.5 mph N/A   Overcast
12:31 PM 69.1 °F 66.2 °F 91% 30.06 in 10.0 mi South 6.9 mph - N/A   Overcast
12:52 PM 69.8 °F 66.2 °F 88% 30.06 in 10.0 mi SSE 10.4 mph 17.3 mph N/A   Overcast
1:12 PM 70.7 °F 66.7 °F 87% 30.06 in 10.0 mi South 9.2 mph - N/A   Overcast
1:31 PM 71.6 °F 66.2 °F 83% 30.06 in 10.0 mi SSW 10.4 mph 17.3 mph N/A   Overcast
1:52 PM 71.8 °F 65.7 °F 81% 30.07 in 10.0 mi WSW 8.1 mph 19.6 mph N/A   Overcast
2:12 PM 71.6 °F 65.7 °F 81% 30.07 in 10.0 mi WSW 10.4 mph - N/A   Overcast
2:31 PM 68.9 °F 67.6 °F 96% 30.08 in 2.5 mi West 9.2 mph 18.4 mph 0.01 in   Overcast
2:52 PM 67.6 °F 67.6 °F 100% 30.09 in 3.0 mi WSW 11.5 mph 23.0 mph 0.07 in   Overcast
3:12 PM 66.7 °F 66.6 °F 99% 30.09 in 5.0 mi West 20.7 mph 27.6 mph N/A   Overcast
3:31 PM 64.9 °F 64.0 °F 97% 30.11 in 10.0 mi West 16.1 mph 23.0 mph N/A   Overcast
3:52 PM 63.1 °F 61.9 °F 96% 30.12 in 10.0 mi WNW 24.2 mph 29.9 mph N/A   Overcast
4:12 PM 62.6 °F 61.0 °F 94% 30.13 in 10.0 mi West 13.8 mph 18.4 mph N/A   Overcast
4:32 PM 61.7 °F 59.4 °F 92% 30.14 in 10.0 mi West 12.7 mph 18.4 mph N/A   Overcast
4:52 PM 59.7 °F 59.0 °F 97% 30.15 in 4.0 mi WNW 12.7 mph 21.9 mph 0.11 in   Overcast
5:12 PM 59.7 °F 59.0 °F 97% 30.16 in 10.0 mi West 5.8 mph - N/A   Overcast
5:32 PM 60.1 °F 59.4 °F 97% 30.17 in 10.0 mi West 5.8 mph - N/A   Overcast
5:52 PM 60.1 °F 59.0 °F 96% 30.17 in 10.0 mi West 4.6 mph - N/A   Overcast
6:12 PM 60.8 °F 58.8 °F 93% 30.18 in 10.0 mi West 8.1 mph - N/A   Overcast
6:32 PM 60.8 °F 57.4 °F 88% 30.19 in 10.0 mi West 12.7 mph - N/A   Scattered Clouds
6:52 PM 60.3 °F 56.3 °F 87% 30.19 in 10.0 mi West 11.5 mph - N/A   Clear
7:12 PM 59.9 °F 56.3 °F 88% 30.21 in 10.0 mi West 9.2 mph - N/A   Clear
7:32 PM 59.4 °F 56.3 °F 90% 30.22 in 10.0 mi West 6.9 mph - N/A   Mostly Cloudy
7:52 PM 59.0 °F 55.4 °F 88% 30.22 in 10.0 mi West 10.4 mph - N/A   Overcast
8:11 PM 58.6 °F 54.5 °F 86% 30.23 in 10.0 mi WNW 12.7 mph - N/A   Overcast
8:32 PM 58.3 °F 54.0 °F 86% 30.24 in 10.0 mi WNW 11.5 mph - N/A   Overcast
8:52 PM 58.1 °F 54.5 °F 88% 30.25 in 10.0 mi West 6.9 mph - N/A   Overcast
9:11 PM 57.6 °F 53.6 °F 87% 30.26 in 10.0 mi West 5.8 mph - N/A   Mostly Cloudy
9:32 PM 57.2 °F 53.1 °F 86% 30.26 in 10.0 mi West 6.9 mph - N/A   Scattered Clouds
9:52 PM 56.8 °F 53.1 °F 87% 30.27 in 10.0 mi West 5.8 mph - N/A   Clear
10:11 PM 56.3 °F 53.1 °F 89% 30.28 in 10.0 mi West 4.6 mph - N/A   Clear
10:32 PM 55.6 °F 53.2 °F 92% 30.28 in 10.0 mi West 4.6 mph - N/A   Clear
10:52 PM 55.4 °F 52.7 °F 91% 30.29 in 10.0 mi West 6.9 mph - N/A   Clear
11:11 PM 54.9 °F 52.5 °F 92% 30.29 in 10.0 mi West 6.9 mph - N/A   Clear
11:32 PM 54.5 °F 52.0 °F 91% 30.31 in 10.0 mi West 6.9 mph - N/A   Clear
11:52 PM 54.0 °F 51.1 °F 90% 30.31 in 10.0 mi WNW 9.2 mph - N/A   Clear